This demonstration page uses our WeatherBlox Daily Observations layout. Learn more.

Left ArrowRight Arrow

38.88101, -77.10428

Hourly Observations for May 23, 2016

Temp ( °F °C ) Dew Point ( °F °C ) Humidity (%) Winds ( mph kmh ) Pressure ( in mb ) Visibility ( mi km ) Precip ( " mm )
12:52 am 00:52 Cloudy with Drizzle 57 13.9 56 13.3 96 96 NNE 9 15 29.91 1013 6 10 N/A
1:52 am 01:52 Cloudy 58 14.4 55 12.8 90 90 ENE 7 11 29.91 1013 10 16 N/A
2:52 am 02:52 Cloudy with Light Rain 57 13.9 55 12.8 93 93 N 6 9 29.90 1013 10 16 0.07 1.78
3:52 am 03:52 Cloudy with Light Rain 57 13.9 55 12.8 93 93 NNW 5 7 29.90 1012 10 16 N/A
4:52 am 04:52 Cloudy with Light Rain 57 13.9 55 12.8 93 93 NNW 5 7 29.91 1013 10 16 N/A
5:52 am 05:52 Cloudy with Light Rain 57 13.9 55 12.8 93 93 NNW 7 11 29.92 1013 10 16 0.01 0.25
6:52 am 06:52 Cloudy 58 14.4 55 12.8 90 90 NW 5 7 29.94 1014 10 16 N/A
7:52 am 07:52 Cloudy 60 15.6 56 13.3 86 86 VRB 3 6 29.95 1014 10 16 N/A
8:52 am 08:52 Cloudy 63 17.2 57 13.9 81 81 N 6 9 29.96 1015 10 16 N/A
9:52 am 09:52 Mostly Cloudy 63 17.2 58 14.4 84 84 ESE 5 7 29.96 1015 10 16 N/A
10:52 am 10:52 Mostly Cloudy 67 19.4 58 14.4 73 73 NE 3 6 29.96 1015 10 16 N/A
11:52 am 11:52 Mostly Cloudy 71 21.7 57 13.9 61 61 VRB 3 6 29.96 1014 10 16 N/A
12:52 pm 12:52 Mostly Cloudy 71 21.7 54 12.2 55 55 N N/A 29.94 1014 10 16 N/A
1:52 pm 13:52 Cloudy 71 21.7 56 13.3 59 59 WNW 8 13 29.93 1014 10 16 N/A
2:52 pm 14:52 Mostly Cloudy 74 23.3 56 13.3 54 54 NW 12 19 29.91 1013 10 16 N/A
3:26 pm 15:26 Mostly Cloudy with Light Rain 70 21 52 11 53 53 NE 18 30 29.91 1013 10 16 N/A
3:28 pm 15:28 Mostly Cloudy with Thunderstorms 70 21 52 11 53 53 NE 14 22 29.91 1013 10 16 N/A
3:37 pm 15:37 Windy with Storms Likely 65 18.3 55 12.8 70 70 N 20 31 29.91 1013 5 8 0.01 0.25
3:46 pm 15:46 Mostly Cloudy with Thunderstorms 66 19 55 13 68 68 NNW 14 22 29.91 1013 10 16 N/A
3:52 pm 15:52 Mostly Cloudy with Thunderstorms 67 19.4 57 13.9 71 71 NNW 14 22 29.91 1013 10 16 0.01 0.25
3:54 pm 15:54 Mostly Cloudy 68 20 57 14 69 69 NW 16 26 29.91 1013 10 16 N/A
4:52 pm 16:52 Mostly Cloudy with Light Rain 69 20.6 54 12.2 59 59 N 15 24 29.91 1013 10 16 N/A
5:52 pm 17:52 Mostly Cloudy with Light Rain 65 18.3 58 14.4 78 78 N 13 20 29.92 1013 8 13 N/A
6:52 pm 18:52 Cloudy with Light Rain 61 16.1 57 13.9 87 87 NE 9 15 29.97 1015 6 10 0.09 2.29
6:56 pm 18:56 Cloudy with Light Rain 61 16 57 14 88 88 NNE 8 13 29.97 1015 10 16 N/A
7:52 pm 19:52 Cloudy 62 16.7 58 14.4 86 86 WSW 8 13 29.94 1014 10 16 N/A
8:52 pm 20:52 Cloudy 61 16.1 58 14.4 90 90 S 13 20 29.93 1014 10 16 N/A
9:28 pm 21:28 Cloudy 61 16 57 14 88 88 N N/A 29.97 1015 10 16 N/A
9:52 pm 21:52 Cloudy 61 16.1 58 14.4 90 90 NNE 7 11 29.98 1015 10 16 N/A
10:52 pm 22:52 Cloudy 61 16.1 57 13.9 87 87 W 3 6 29.97 1015 10 16 N/A
11:52 pm 23:52 Mostly Cloudy 60 15.6 57 13.9 90 90 WNW 3 6 29.96 1015 10 16 N/A

Powered by AerisWeather